Flag for Mexico Weather past 2 weeks in Mexico City, Federal District, Mexico

Now
68 °F

Thunderstorms. Mostly cloudy.


Feels Like: 68 °F
Forecast: N/A
Wind: 16 mph from Northwest

Location: Mexico City / Licenci

Current Time: Jun 30, 2015 at 4:28:33 PM

Latest Report: Jun 30, 2015 at 4:04 PM


Visibility: 5 mi

Pressure: 30.27 "Hg

Humidity: 73%

Dew point: 59 °F

Location of Mexico CityLocation

Historic Weather in Mexico City — Graph

°F

Mexico City temperature yesterday

Maximum temperature yesterday: 73 °F (at 1:42 PM)
Minimum temperature yesterday: 57 °F (at 2:46 AM)
Average temperature yesterday: 61 °F

Past Weeks' High & Low Weather Summary

 TemperatureHumidityPressure
High77 °F (Jun 16, 1:48 PM)100% (Jun 27, 3:11 PM)30.45 "Hg (Jun 27, 3:11 PM)
Low34 °F (Jun 27, 3:11 PM)30% (Jun 16, 1:48 PM)29.64 "Hg (Jun 16, 3:46 PM)
Average63 °F67%30.22 "Hg
* Reported Jun 15 5:46 PM — Jun 30 2:48 PM, Mexico City, Weather by CustomWeather, © 2015

Note: Actual official high and low records may vary slightly from our data, if they occured in-between our weather recording intervals... More about our weather records

Advertising

Mexico City weather history for previous 24 hours

 ConditionsComfort  
Time TempWeatherWind HumidityBarometerVisibility
2:48 PM
Tue, Jun 30
73 °FBroken clouds.3 mph44%30.27 "Hg7 mi
12:47 PM68 °FBroken clouds.2 mph49%29.84 "Hg7 mi
9:48 AM63 °FOvercast.3 mph64%29.89 "Hg8 mi
9:20 AM61 °FMore clouds than sun.6 mph63%30.36 "Hg8 mi
8:45 AM61 °FMostly cloudy.8 mph63%30.35 "Hg8 mi
7:24 AM59 °FMostly cloudy.8 mph72%30.33 "Hg10 mi
6:45 AM59 °FMostly cloudy.3 mph77%29.89 "Hg7 mi
5:47 AM59 °FPartly cloudy.3 mph77%30.31 "Hg6 mi
4:46 AM59 °FMostly cloudy.6 mph77%30.32 "Hg5 mi
3:50 AM59 °FMostly cloudy.3 mph88%29.90 "Hg5 mi
2:45 AM59 °FPassing clouds.No wind82%30.33 "Hg7 mi
1:45 AM59 °FPassing clouds.2 mph82%30.35 "Hg7 mi
12:46 AM59 °FPassing clouds.2 mph77%29.85 "Hg7 mi
11:49 PM
Mon, Jun 29
61 °FPartly cloudy.5 mph72%30.38 "Hg7 mi
10:42 PM61 °FOvercast.6 mph77%30.36 "Hg7 mi
9:51 PM63 °FOvercast.3 mph73%29.86 "Hg6 mi
8:46 PM63 °FMostly cloudy.8 mph77%30.33 "Hg6 mi
7:45 PM63 °FMostly cloudy.6 mph73%30.31 "Hg6 mi
5:47 PM61 °FLight rain. More clouds than sun.7 mph83%30.27 "Hg6 mi
5:13 PM59 °FSleet. Cloudy.N/A88%30.28 "HgN/A
4:09 PM57 °FThunderstorms. Mostly cloudy.9 mph88%29.89 "Hg3 mi
Weather by CustomWeather, © 2015

See weather overviewHow to use our weather pages